Location: *
(28.3744°N, 81.5492°W)
Time: 04:02:17
(UTC+00:00)

Cosmos 1244 Rocket - Pass Details

Date: 15 June 2025
Orbit: 954 x 996 km, 83.0° (Epoch: 11 July)

Event Time Altitude Azimuth Distance (km) Brightness Sun altitude
Exits shadow 09:37:11 - 191° (SSW) 3,479 7.0 -10.6°
Reaches altitude 10° 09:39:19 10° 194° (SSW) 2,672 6.4 -10.2°
Maximum altitude 09:45:23 67° 276° (W) 1,031 4.5 -9.1°
Drops below altitude 10° 09:51:30 10° 359° (N) 2,698 7.3 -7.9°
Sets 09:54:03 0° 2° (N) 3,652 8.0 -7.5°
